Mesa, AZ

12:29 PM MST on December 08, 2016 (GMT -0700)
Phoenix-Mesa Gateway Airport

Weather History for KIWA - December, 2012

Change the Weather History Date:

Saturday, December 22, 2012

  Actual Average Record
Temperature  
Mean Temperature 56 °F -  
Max Temperature 68 °F 62 °F 77 °F (2005)
Min Temperature 44 °F 37 °F 33 °F (1998)
Degree Days  
Heating Degree Days 9    
Growing Degree Days 6 (Base 50)    
Moisture  
Dew Point 34 °F    
Average Humidity 53    
Maximum Humidity 76    
Minimum Humidity 23    
Precipitation  
Precipitation 0.00 in - - ()
Sea Level Pressure  
Sea Level Pressure 30.09 in    
Wind  
Wind Speed 4 mph (ESE)    
Max Wind Speed 7 mph    
Max Gust Speed -    
Visibility 12 miles    
Events      
Averages and records for this station are not official NWS values.
T = Trace of Precipitation, MM = Missing Value Source: NWS Daily Summary

Daily Weather History Graph

Daily Weather History Graph

Search for Another Location

Airport or City:

Trip Planner

Search our weather history database for the weather conditions in past years. The results will help you decide how hot, cold, wet, or windy it might be!

Date:

Astronomy

Dec. 22, 2012 Rise Set
Actual Time 7:27 AM MST 5:24 PM MST
Civil Twilight 6:59 AM MST 5:51 PM MST
Nautical Twilight 6:28 AM MST 6:22 PM MST
Astronomical Twilight 5:58 AM MST 6:52 PM MST
Moon 1:35 PM MST (12/22) 2:24 AM MST (12/22)
Length of Visible Light 10h 51m
Length of Day
9h 56m
Waxing Gibbous, 74% of the Moon is Illuminated
Dec 22
Waxing Gibbous
Dec 28
Full
Jan 4
Last Quarter
Jan 11
New
Jan 18
First Quarter

Hourly Weather History & Observations

Time (MST) Temp. Windchill Dew Point Humidity Pressure Visibility Wind Dir Wind Speed Gust Speed Precip Events Conditions
12:15 AM 50.0 °F - 37.4 °F 62% 30.08 in 10.0 mi East 5.8 mph - N/A   Clear
12:35 AM 50.0 °F - 35.6 °F 58% 30.08 in 10.0 mi ESE 5.8 mph - N/A   Clear
12:55 AM 51.8 °F - 32.0 °F 47% 30.08 in 10.0 mi ESE 3.5 mph - N/A   Clear
1:15 AM 51.8 °F - 32.0 °F 47% 30.08 in 10.0 mi ESE 3.5 mph - N/A   Clear
1:35 AM 51.8 °F - 33.8 °F 50% 30.08 in 10.0 mi Calm Calm - N/A   Clear
1:55 AM 51.8 °F - 32.0 °F 47% 30.08 in 10.0 mi Calm Calm - N/A   Clear
2:15 AM 48.2 °F - 32.0 °F 54% 30.07 in 10.0 mi SSE 3.5 mph - N/A   Clear
2:35 AM 50.0 °F - 32.0 °F 50% 30.07 in 10.0 mi SE 4.6 mph - N/A   Clear
2:55 AM 50.0 °F - 32.0 °F 50% 30.07 in 10.0 mi SSE 3.5 mph - N/A   Clear
3:15 AM 51.8 °F - 32.0 °F 47% 30.07 in 10.0 mi SSE 3.5 mph - N/A   Clear
3:35 AM 50.0 °F - 32.0 °F 50% 30.07 in 10.0 mi SSE 3.5 mph - N/A   Clear
3:55 AM 46.4 °F - 33.8 °F 62% 30.06 in 10.0 mi Calm Calm - N/A   Clear
4:15 AM 46.4 °F 45.2 °F 33.8 °F 62% 30.06 in 10.0 mi SSE 3.5 mph - N/A   Clear
4:35 AM 46.4 °F - 32.0 °F 57% 30.07 in 10.0 mi Calm Calm - N/A   Clear
4:55 AM 46.4 °F - 35.6 °F 66% 30.08 in 10.0 mi Calm Calm - N/A   Clear
5:15 AM 46.4 °F 45.2 °F 35.6 °F 66% 30.08 in 10.0 mi NE 3.5 mph - N/A   Clear
5:47 AM 46.4 °F 44.3 °F 35.6 °F 66% 30.08 in 20.0 mi NE 4.6 mph - N/A   Mostly Cloudy
6:47 AM 46.4 °F 44.3 °F 35.6 °F 66% 30.07 in 20.0 mi ESE 4.6 mph - N/A   Mostly Cloudy
7:47 AM 46.4 °F 45.2 °F 37.4 °F 71% 30.10 in 45.0 mi East 3.5 mph - N/A   Mostly Cloudy
8:47 AM 50.0 °F - 39.2 °F 66% 30.12 in 45.0 mi NE 3.5 mph - N/A   Partly Cloudy
9:47 AM 57.2 °F - 30.2 °F 36% 30.13 in 45.0 mi Calm Calm - N/A   Partly Cloudy
10:47 AM 60.8 °F - 28.4 °F 29% 30.13 in 45.0 mi Variable 3.5 mph - N/A   Partly Cloudy
11:47 AM 62.6 °F - 26.6 °F 26% 30.13 in 45.0 mi Calm Calm - N/A   Scattered Clouds
12:47 PM 64.4 °F - 30.2 °F 28% 30.09 in 45.0 mi Variable 3.5 mph - N/A   Scattered Clouds
1:47 PM 68.0 °F - 28.4 °F 23% 30.06 in 45.0 mi Variable 4.6 mph - N/A   Mostly Cloudy
2:47 PM 68.0 °F - 28.4 °F 23% 30.05 in 45.0 mi Variable 4.6 mph - N/A   Mostly Cloudy
3:47 PM 68.0 °F - 28.4 °F 23% 30.06 in 30.0 mi West 4.6 mph - N/A   Mostly Cloudy
4:47 PM 66.2 °F - 28.4 °F 24% 30.06 in 30.0 mi West 4.6 mph - N/A   Scattered Clouds
5:47 PM 62.6 °F - 33.8 °F 34% 30.08 in 20.0 mi WNW 3.5 mph - N/A   Scattered Clouds
6:47 PM 57.2 °F - 35.6 °F 44% 30.09 in 20.0 mi Calm Calm - N/A   Scattered Clouds
7:47 PM 55.4 °F - 35.6 °F 47% 30.09 in 20.0 mi Calm Calm - N/A   Scattered Clouds
7:55 PM 51.8 °F - 35.6 °F 54% 30.09 in 10.0 mi Calm Calm - N/A   Clear
8:15 PM 51.8 °F - 37.4 °F 58% 30.09 in 10.0 mi East 4.6 mph - N/A   Clear
8:35 PM 51.8 °F - 37.4 °F 58% 30.10 in 10.0 mi East 3.5 mph - N/A   Clear
8:47 PM 53.6 °F - 39.2 °F 58% 30.10 in 20.0 mi Variable 3.5 mph - N/A   Scattered Clouds
8:55 PM 51.8 °F - 39.2 °F 62% 30.10 in 10.0 mi Calm Calm - N/A   Clear
9:15 PM 50.0 °F - 39.2 °F 66% 30.11 in 10.0 mi ESE 5.8 mph - N/A   Clear
9:35 PM 50.0 °F - 41.0 °F 71% 30.12 in 10.0 mi ESE 5.8 mph - N/A   Clear
9:55 PM 50.0 °F - 37.4 °F 62% 30.12 in 10.0 mi SE 5.8 mph - N/A   Clear
10:15 PM 46.4 °F 43.5 °F 37.4 °F 71% 30.12 in 10.0 mi SE 5.8 mph - N/A   Clear
10:35 PM 46.4 °F 42.9 °F 37.4 °F 71% 30.12 in 10.0 mi ESE 6.9 mph - N/A   Clear
10:55 PM 46.4 °F 42.9 °F 37.4 °F 71% 30.12 in 10.0 mi ESE 6.9 mph - N/A   Clear
11:15 PM 46.4 °F 43.5 °F 37.4 °F 71% 30.11 in 10.0 mi ESE 5.8 mph - N/A   Clear
11:35 PM 44.6 °F 42.2 °F 37.4 °F 76% 30.12 in 10.0 mi ESE 4.6 mph - N/A   Clear
11:55 PM 44.6 °F 41.4 °F 37.4 °F 76% 30.12 in 10.0 mi ESE 5.8 mph - N/A   Clear